Location: Newark
(56.0692°N, 115.8617°E)
Time: 13:33:54
(UTC+00:00)

deb Explorer IX - Pass Details

Date: 29 May 2020
Orbit: 543 x 1102 km, 38.8° (Epoch: 06 July)

Event Time Altitude Azimuth Distance (km) Brightness Sun altitude
Rises 14:53:56 0° 240° (WSW) 3,091 ? -10.3°
Reaches altitude 10° 14:58:30 10° 202° (SSW) 2,333 ? -10.5°
Maximum altitude 14:59:36 11° 190° (S) 2,331 ? -10.6°
Enters shadow 14:59:44 11° 189° (S) 2,336 ? -10.6°
